风云二号F星(FENGYUN 2F)

Basic Information
目录编号:
38049
目录名称:
FENGYUN 2F
国际标识:
2012-002A
轨道中心:
EARTH
卫星名称:
风云二号F星
卫星全名:
风云二号F星(FENGYUN 2F)
卫星状态:
在轨 (已飞行5174 天)
发射日期:
2012-01-13 UTC
国别 :
中国 (CN)
星等 :
--
Orbit Information
数据来源 国际轨道数据 AOE轨道数据
星历时间 2026-03-13T16:25:38+0800
15小时前
查看轨道信息
2026-03-13T12:00:00+0800
20小时前
查看轨道信息
半长轴 42484.799km 42484.742km
偏心率 0.0002286 0.0002223
轨道倾角 7.332° 7.331°
近地点辐角 206.675° 207.616°
升交点赤经 67.225° 67.227°
平近点角 358.146° 291.366°
近地点 36096.949km 36097.16km
远地点 36116.375km 36116.05km
周期 1452.480分钟 1452.477分钟
每日圈数 0.991408 0.99141
Detailed Information
平衡模式:
三轴稳定
覆盖范围:
亚洲
运营商:
夏威夷科学技术博物馆
运营商所在国:
美国
制造商(研发单位):
上海航天技术研究院
制造商所在国:
中国
使用方式:
暂无
Satellite Introduction
风云气象卫星系列(FENGYUN Meteorological Satellite)是中国于1977年开始研制的气象卫星系列,目前发射了风云一号、风云二号、风云三号、风云四号等卫星系列。其中,风云二号系列、风云四号系列为风云静止卫星,风云一号系列、风云三号系列为风云极轨卫星。该卫星仍在工作。
2D Orbit Map
3D Orbit Map
Orbit Altitude Analysis Chart
Orbit Inclination Analysis Chart
Orbit Comprehensive Analysis Chart
View Comprehensive Chart